H1 CPF 2 NER 2025 8 28 9 240 01 glonass129 H2 1106402 9129 37868 2025 8 28 0 0 0 2025 8 31 23 45 0 900 1 1 0 0 0 1 H9 10 0 60915 0.00000 0 -12515831.463 9078990.089 20339677.388 10 0 60915 900.00000 0 -11795491.952 6595629.299 21680416.489 10 0 60915 1800.00000 0 -11236069.039 3928871.685 22602051.176 10 0 60915 2700.00000 0 -10865879.698 1141854.643 23086640.597 10 0 60915 3600.00000 0 -10701761.014 -1697477.716 23124644.624 10 0 60915 4500.00000 0 -10748352.129 -4518937.205 22715118.304 10 0 60915 5400.00000 0 -10997901.143 -7252751.225 21865745.975 10 0 60915 6300.00000 0 -11430606.278 -9832211.589 20592713.211 10 0 60915 7200.00000 0 -12015478.812 -12196204.492 18920417.400 10 0 60915 8100.00000 0 -12711693.680 -14291517.793 16881020.494 10 0 60915 9000.00000 0 -13470373.185 -16074830.152 14513850.331 10 0 60915 9900.00000 0 -14236730.823 -17514298.941 11864659.919 10 0 60915 10800.00000 0 -14952486.430 -18590679.794 8984757.047 10 0 60915 11700.00000 0 -15558451.699 -19297929.775 5930019.495 10 0 60915 12600.00000 0 -15997176.898 -19643267.364 2759814.004 10 0 60915 13500.00000 0 -16215546.124 -19646685.417 -464160.332 10 0 60915 14400.00000 0 -16167209.686 -19339936.460 -3679081.427 10 0 60915 15300.00000 0 -15814748.412 -18765032.538 -6822241.737 10 0 60915 16200.00000 0 -15131475.581 -17972322.925 -9832288.350 10 0 60915 17100.00000 0 -14102797.402 -17018231.612 -12650439.582 10 0 60915 18000.00000 0 -12727071.759 -15962751.465 -15221652.255 10 0 60915 18900.00000 0 -11015926.604 -14866802.735 -17495714.889 10 0 60915 19800.00000 0 -8994022.695 -13789569.553 -19428243.654 10 0 60915 20700.00000 0 -6698269.528 -12785928.957 -20981560.206 10 0 60915 21600.00000 0 -4176526.890 -11904082.790 -22125433.300 10 0 60915 22500.00000 0 -1485846.597 -11183493.718 -22837669.295 10 0 60915 23400.00000 0 1309671.338 -10653213.138 -23104540.031 10 0 60915 24300.00000 0 4141317.634 -10330671.484 -22921040.329 10 0 60915 25200.00000 0 6938405.021 -10220981.189 -22290970.933 10 0 60915 26100.00000 0 9630981.314 -10316780.396 -21226846.520 10 0 60915 27000.00000 0 12152510.803 -10598622.155 -19749631.907 10 0 60915 27900.00000 0 14442412.321 -11035890.644 -17888313.059 10 0 60915 28800.00000 0 16448348.914 -11588203.564 -15679312.711 10 0 60915 29700.00000 0 18128174.988 -12207239.508 -13165763.354 10 0 60915 30600.00000 0 19451461.671 -12838911.426 -10396652.969 10 0 60915 31500.00000 0 20400539.099 -13425793.133 -7425861.175 10 0 60915 32400.00000 0 20971014.836 -13909695.624 -4311105.369 10 0 60915 33300.00000 0 21171749.637 -14234284.216 -1112817.827 10 0 60915 34200.00000 0 21024294.347 -14347626.328 2107024.150 10 0 60915 35100.00000 0 20561814.033 -14204563.170 5286092.473 10 0 60915 36000.00000 0 19827546.439 -13768806.374 8362904.240 10 0 60915 36900.00000 0 18872860.757 -13014672.414 11277997.022 10 0 60915 37800.00000 0 17754998.750 -11928382.933 13975061.931 10 0 60915 38700.00000 0 16534592.829 -10508877.147 16402013.962 10 0 60915 39600.00000 0 15273064.339 -8768102.589 18511980.518 10 0 60915 40500.00000 0 14030009.752 -6730771.739 20264190.749 10 0 60915 41400.00000 0 12860682.536 -4433593.748 21624750.149 10 0 60915 42300.00000 0 11813674.344 -1924011.672 22567286.896 10 0 60915 43200.00000 0 10928890.905 741504.460 23073458.534 10 0 60915 44100.00000 0 10235905.952 3499540.499 23133309.826 10 0 60915 45000.00000 0 9752761.316 6282113.368 22745474.920 10 0 60915 45900.00000 0 9485263.271 9019242.970 21917219.324 10 0 60915 46800.00000 0 9426805.112 11641616.863 20664319.786 10 0 60915 47700.00000 0 9558724.615 14083239.274 19010782.674 10 0 60915 48600.00000 0 9851182.970 16283956.052 16988404.317 10 0 60915 49500.00000 0 10264530.189 18191751.381 14636179.532 10 0 60915 50400.00000 0 10751101.399 19764720.633 11999567.578 10 0 60915 51300.00000 0 11257369.963 20972636.368 9129627.766 10 0 60915 52200.00000 0 11726367.658 21798040.794 6082039.847 10 0 60915 53100.00000 0 12100270.043 22236817.340 2916027.209 10 0 60915 54000.00000 0 12323037.229 22298215.686 -306796.565 10 0 60915 54900.00000 0 12342997.021 22004327.732 -3523635.058 10 0 60915 55800.00000 0 12115259.048 21389035.483 -6671745.776 10 0 60915 56700.00000 0 11603855.132 20496474.707 -9689680.737 10 0 60915 57600.00000 0 10783512.397 19379079.371 -12518504.840 10 0 60915 58500.00000 0 9640981.265 18095290.210 -15102966.170 10 0 60915 59400.00000 0 8175859.506 16707025.569 -17392593.387 10 0 60915 60300.00000 0 6400875.369 15277023.023 -19342696.971 10 0 60915 61200.00000 0 4341616.221 13866165.844 -20915253.285 10 0 60915 62100.00000 0 2035713.156 12530908.865 -22079653.226 10 0 60915 63000.00000 0 -468484.500 11320913.641 -22813300.382 10 0 60915 63900.00000 0 -3113688.957 10276993.408 -23102047.034 10 0 60915 64800.00000 0 -5835832.856 9429454.538 -22940460.036 10 0 60915 65700.00000 0 -8566516.207 8796903.732 -22331912.260 10 0 60915 66600.00000 0 -11235638.332 8385569.890 -21288499.034 10 0 60915 67500.00000 0 -13774104.370 8189167.307 -19830782.561 10 0 60915 68400.00000 0 -16116493.242 8189303.681 -17987370.762 10 0 60915 69300.00000 0 -18203576.046 8356413.207 -15794340.194 10 0 60915 70200.00000 0 -19984580.709 8651172.921 -13294515.671 10 0 60915 71100.00000 0 -21419109.823 9026340.253 -10536621.822 10 0 60915 72000.00000 0 -22478633.502 9428932.350 -7574324.170 10 0 60915 72900.00000 0 -23147497.256 9802653.765 -4465179.171 10 0 60915 73800.00000 0 -23423405.320 10090469.219 -1269514.177 10 0 60915 74700.00000 0 -23317361.809 10237212.569 1950740.685 10 0 60915 75600.00000 0 -22853074.661 10192122.210 5133246.119 10 0 60915 76500.00000 0 -22065849.389 9911196.664 8216450.116 10 0 60915 77400.00000 0 -21001020.544 9359272.090 11140764.789 10 0 60915 78300.00000 0 -19711987.491 8511735.286 13849702.009 10 0 60915 79200.00000 0 -18257936.899 7355801.079 16290947.264 10 0 60915 80100.00000 0 -16701346.752 5891301.017 18417352.586 10 0 60915 81000.00000 0 -15105375.158 4130950.346 20187831.075 10 0 60915 81900.00000 0 -13531241.482 2100081.440 21568137.392 10 0 60915 82800.00000 0 -12035707.387 -164146.477 22531520.599 10 0 60915 83700.00000 0 -10668761.085 -2614030.402 23059237.841 10 0 60915 84600.00000 0 -9471599.778 -5193048.560 23140919.620 10 0 60915 85500.00000 0 -8474993.274 -7837958.534 22774779.633 10 0 60916 0.00000 0 -7698096.453 -10481184.152 21967664.720 10 0 60916 900.00000 0 -7147759.749 -13053396.378 20734942.303 10 0 60916 1800.00000 0 -6818368.058 -15486179.970 19100227.029 10 0 60916 2700.00000 0 -6692214.506 -17714681.746 17094948.437 10 0 60916 3600.00000 0 -6740395.991 -19680127.938 14757766.760 10 0 60916 4500.00000 0 -6924194.012 -21332107.520 12133845.596 10 0 60916 5400.00000 0 -7196884.259 -22630525.557 9273993.543 10 0 60916 6300.00000 0 -7505899.853 -23547143.797 6233689.830 10 0 60916 7200.00000 0 -7795257.437 -24066642.338 3072011.797 10 0 60916 8100.00000 0 -8008143.414 -24187155.944 -149515.344 10 0 60916 9000.00000 0 -8089549.935 -23920260.647 -3368123.822 10 0 60916 9900.00000 0 -7988847.311 -23290409.604 -6521039.261 10 0 60916 10800.00000 0 -7662181.555 -22333840.946 -9546721.728 10 0 60916 11700.00000 0 -7074592.796 -21097003.231 -12386085.833 10 0 60916 12600.00000 0 -6201761.958 -19634565.216 -14983673.982 10 0 60916 13500.00000 0 -5031309.031 -18007094.785 -17288757.884 10 0 60916 14400.00000 0 -3563585.603 -16278506.331 -19256344.973 10 0 60916 15300.00000 0 -1811926.245 -14513385.873 -20848068.601 10 0 60916 16200.00000 0 197653.153 -12774308.296 -22032943.625 10 0 60916 17100.00000 0 2427298.143 -11119261.128 -22787972.156 10 0 60916 18000.00000 0 4828664.208 -9599284.252 -23098587.644 10 0 60916 18900.00000 0 7344714.092 -8256425.187 -22958929.149 10 0 60916 19800.00000 0 9911887.970 -7122095.503 -22371941.319 10 0 60916 20700.00000 0 12462554.860 -6215896.353 -21349299.303 10 0 60916 21600.00000 0 14927642.036 -5544960.655 -19911161.416 10 0 60916 22500.00000 0 17239332.170 -5103837.254 -18085755.851 10 0 60916 23400.00000 0 19333715.379 -4874919.208 -15908810.903 10 0 60916 24300.00000 0 21153285.889 -4829395.305 -13422841.239 10 0 60916 25200.00000 0 22649179.950 -4928681.991 -10676305.292 10 0 60916 26100.00000 0 23783062.934 -5126272.843 -7722651.293 10 0 60916 27000.00000 0 24528588.646 -5369925.589 -4619271.299 10 0 60916 27900.00000 0 24872372.048 -5604092.962 -1426384.095 10 0 60916 28800.00000 0 24814437.020 -5772493.987 1794131.053 10 0 60916 29700.00000 0 24368122.767 -5820717.018 4979927.253 10 0 60916 30600.00000 0 23559454.843 -5698745.073 8069386.775 10 0 60916 31500.00000 0 22426008.757 -5363297.738 11002799.338 10 0 60916 32400.00000 0 21015314.771 -4779891.986 13723500.217 10 0 60916 33300.00000 0 19382871.007 -3924536.180 16178947.584 10 0 60916 34200.00000 0 17589847.599 -2784986.832 18321719.813 10 0 60916 35100.00000 0 15700576.844 -1361515.746 20110415.199 10 0 60916 36000.00000 0 13779932.581 332844.849 21510438.377 10 0 60916 36900.00000 0 11890706.259 2272590.344 22494659.670 10 0 60916 37800.00000 0 10091087.048 4420554.591 23043935.813 10 0 60916 38700.00000 0 8432349.005 6729212.022 23147482.635 10 0 60916 39600.00000 0 6956840.041 9142419.556 22803092.604 10 0 60916 40500.00000 0 5696355.281 11597528.869 22017192.562 10 0 60916 41400.00000 0 4670962.002 14027784.227 20804739.406 10 0 60916 42300.00000 0 3888325.273 16364908.937 19188954.145 10 0 60916 43200.00000 0 3343563.007 18541775.068 17200897.438 10 0 60916 44100.00000 0 3019637.592 20495046.864 14878892.618 10 0 60916 45000.00000 0 2888268.980 22167688.332 12267805.092 10 0 60916 45900.00000 0 2911332.234 23511230.186 9418190.075 10 0 60916 46800.00000 0 3042681.849 24487700.405 6385323.480 10 0 60916 47700.00000 0 3230326.620 25071135.920 3228133.724 10 0 60916 48600.00000 0 3418863.280 25248610.031 8054.760 10 0 60916 49500.00000 0 3552065.328 25020730.233 -3212177.127 10 0 60916 50400.00000 0 3575516.092 24401583.513 -6369758.401 10 0 60916 51300.00000 0 3439172.452 23418129.834 -9403059.695 10 0 60916 52200.00000 0 3099748.075 22109068.344 -12252847.582 10 0 60916 53100.00000 0 2522812.433 20523223.792 -14863460.742 10 0 60916 54000.00000 0 1684513.911 18717521.489 -17183915.569 10 0 60916 54900.00000 0 572851.520 16754637.133 -19168917.776 10 0 60916 55800.00000 0 -811560.677 14700421.815 -20779758.742 10 0 60916 56700.00000 0 -2455270.306 12621212.129 -21985078.052 10 0 60916 57600.00000 0 -4332314.974 10581139.966 -22761476.850 10 0 60916 58500.00000 0 -6405088.642 8639556.169 -23093969.995 10 0 60916 59400.00000 0 -8625709.514 6848676.854 -22976268.686 10 0 60916 60300.00000 0 -10937831.462 5251551.042 -22410888.939 10 0 60916 61200.00000 0 -13278822.234 3880434.088 -21409084.928 10 0 60916 62100.00000 0 -15582216.400 2755633.516 -19990609.900 10 0 60916 63000.00000 0 -17780339.663 1884873.455 -18183310.743 10 0 60916 63900.00000 0 -19806994.332 1263201.656 -16022565.587 10 0 60916 64800.00000 0 -21600093.646 873439.910 -13550576.777 10 0 60916 65700.00000 0 -23104135.241 687155.878 -10815534.197 10 0 60916 66600.00000 0 -24272411.276 666112.497 -7870666.337 10 0 60916 67500.00000 0 -25068864.164 764131.330 -4773198.360 10 0 60916 68400.00000 0 -25469512.075 929289.345 -1583237.990 10 0 60916 69300.00000 0 -25463386.522 1106355.052 1637388.852 10 0 60916 70200.00000 0 -25052944.912 1239360.560 4826330.135 10 0 60916 71100.00000 0 -24253942.700 1274200.977 7921904.843 10 0 60916 72000.00000 0 -23094772.161 1161152.016 10864282.691 10 0 60916 72900.00000 0 -21615296.544 857200.581 13596624.682 10 0 60916 73800.00000 0 -19865228.910 328091.196 16066163.873 10 0 60916 74700.00000 0 -17902123.206 -449996.788 18225207.004 10 0 60916 75600.00000 0 -15789060.615 -1489210.984 20032039.347 10 0 60916 76500.00000 0 -13592126.220 -2789278.505 21451716.975 10 0 60916 77400.00000 0 -11377779.271 -4337280.975 22456732.608 10 0 60916 78300.00000 0 -9210224.365 -6107962.593 23027543.321 10 0 60916 79200.00000 0 -7148890.737 -8064560.242 23152950.649 10 0 60916 80100.00000 0 -5246122.555 -10160123.468 22830325.853 10 0 60916 81000.00000 0 -3545174.666 -12339272.181 22065675.532 10 0 60916 81900.00000 0 -2078596.116 -14540321.895 20873545.255 10 0 60916 82800.00000 0 -867068.356 -16697690.910 19276761.473 10 0 60916 83700.00000 0 81253.296 -18744491.661 17306014.690 10 0 60916 84600.00000 0 770866.754 -20615200.141 14999289.754 10 0 60916 85500.00000 0 1218512.439 -22248293.048 12401152.027 10 0 60917 0.00000 0 1452240.751 -23588742.585 9561901.474 10 0 60917 900.00000 0 1509995.876 -24590264.522 6536607.837 10 0 60917 1800.00000 0 1437774.479 -25217222.099 3384048.329 10 0 60917 2700.00000 0 1287437.048 -25446106.267 165562.987 10 0 60917 3600.00000 0 1114264.367 -25266525.861 -3056146.147 10 0 60917 4500.00000 0 974363.678 -24681664.478 -6218249.187 10 0 60917 5400.00000 0 922036.054 -23708182.578 -9259030.187 10 0 60917 6300.00000 0 1007218.787 -22375567.366 -12119110.529 10 0 60917 7200.00000 0 1273113.730 -20724956.881 -14742627.960 10 0 60917 8100.00000 0 1754104.830 -18807487.603 -17078346.217 10 0 60917 9000.00000 0 2474055.583 -16682235.589 -19080671.740 10 0 60917 9900.00000 0 3445060.725 -14413838.752 -20710556.071 10 0 60917 10800.00000 0 4666706.663 -12069901.558 -21936265.269 10 0 60917 11700.00000 0 6125873.030 -9718292.548 -22734000.794 10 0 60917 12600.00000 0 7797084.284 -7424449.301 -23088359.698 10 0 60917 13500.00000 0 9643396.497 -5248804.704 -22992625.623 10 0 60917 14400.00000 0 11617781.602 -3244442.524 -22448885.764 10 0 60917 15300.00000 0 13664950.109 -1455080.047 -21467972.697 10 0 60917 16200.00000 0 15723534.874 86539.008 -20069233.553 10 0 60917 17100.00000 0 17728543.447 1359775.973 -18280132.482 10 0 60917 18000.00000 0 19613975.476 2356708.254 -16135695.625 10 0 60917 18900.00000 0 21315495.129 3082197.280 -13677810.800 10 0 60917 19800.00000 0 22773046.638 3553413.781 -10954396.762 10 0 60917 20700.00000 0 23933303.871 3798843.535 -8018459.332 10 0 60917 21600.00000 0 24751852.334 3856818.379 -4927053.554 10 0 60917 22500.00000 0 25195013.544 3773636.847 -1740172.670 10 0 60917 23400.00000 0 25241237.020 3601355.536 1480414.258 10 0 60917 24300.00000 0 24882003.402 3395345.515 4672353.537 10 0 60917 25200.00000 0 24122202.637 3211717.355 7773904.190 10 0 60917 26100.00000 0 22979972.975 3104723.179 10725118.986 10 0 60917 27000.00000 0 21486008.628 3124244.600 13468987.375 10 0 60917 27900.00000 0 19682365.667 3313471.332 15952519.633 10 0 60917 28800.00000 0 17620815.987 3706867.067 18127752.788 10 0 60917 29700.00000 0 15360817.300 4328507.101 19952660.609 10 0 60917 30600.00000 0 12967182.434 5190856.901 21391951.736 10 0 60917 31500.00000 0 10507543.115 6294042.706 22417742.016 10 0 60917 32400.00000 0 8049711.518 7625645.287 23010089.217 10 0 60917 33300.00000 0 5659046.889 9161026.823 23157380.544 10 0 60917 34200.00000 0 3395934.397 10864179.186 22856565.605 10 0 60917 35100.00000 0 1313478.981 12689060.769 22113229.905 10 0 60917 36000.00000 0 -544491.478 14581368.931 20941506.422 10 0 60917 36900.00000 0 -2145031.491 16480677.017 19363825.383 10 0 60917 37800.00000 0 -3467225.252 18322849.471 17410505.120 10 0 60917 38700.00000 0 -4502827.703 20042636.419 15119189.676 10 0 60917 39600.00000 0 -5256371.806 21576340.738 12534141.794 10 0 60917 40500.00000 0 -5744736.446 22864446.645 9705402.923 10 0 60917 41400.00000 0 -5996191.981 23854099.385 6687834.775 10 0 60917 42300.00000 0 -6048962.585 24501330.786 3540059.932 10 0 60917 43200.00000 0 -5949365.427 24772935.346 323321.539 10 0 60917 44100.00000 0 -5749605.234 24647915.538 -2899715.545 10 0 60917 45000.00000 0 -5505318.133 24118432.970 -6066197.930 10 0 60917 45900.00000 0 -5272970.076 23190222.814 -9114325.771 10 0 60917 46800.00000 0 -5107221.942 21882451.954 -11984577.717 10 0 60917 47700.00000 0 -5058375.324 20227025.275 -14620892.752 10 0 60917 48600.00000 0 -5170009.782 18267368.444 -16971783.822 10 0 60917 49500.00000 0 -5476914.159 16056738.261 -18991359.638 10 0 60917 50400.00000 0 -6003401.843 13656132.158 -20640233.130 10 0 60917 51300.00000 0 -6762083.060 11131885.611 -21886297.750 10 0 60917 52200.00000 0 -7753147.356 8553059.524 -22705355.897 10 0 60917 53100.00000 0 -8964187.222 5988728.341 -23081587.139 10 0 60917 54000.00000 0 -10370570.338 3505283.457 -23007847.533 10 0 60917 54900.00000 0 -11936344.302 1163865.247 -22485795.075 10 0 60917 55800.00000 0 -13615634.919 -981968.965 -21525839.966 10 0 60917 56700.00000 0 -15354478.172 -2888244.338 -20146922.036 10 0 60917 57600.00000 0 -17093007.796 -4522153.352 -18376121.110 10 0 60917 58500.00000 0 -18767905.564 -5863161.992 -16248109.401 10 0 60917 59400.00000 0 -20315010.702 -6903593.795 -13804457.962 10 0 60917 60300.00000 0 -21671978.545 -7648670.487 -11092811.965 10 0 60917 61200.00000 0 -22780876.940 -8116010.780 -8165951.960 10 0 60917 62100.00000 0 -23590612.004 -8334611.633 -5080760.213 10 0 60917 63000.00000 0 -24059082.422 -8343357.667 -1897112.774 10 0 60917 63900.00000 0 -24154973.236 -8189123.833 1323280.851 10 0 60917 64800.00000 0 -23859115.391 -7924552.955 4518067.992 10 0 60917 65700.00000 0 -23165355.670 -7605602.771 7625450.358 10 0 60917 66600.00000 0 -22080901.965 -7288966.090 10585366.355 10 0 60917 67500.00000 0 -20626130.608 -7029472.391 13340636.356 10 0 60917 68400.00000 0 -18833864.428 -6877579.421 15838050.159 10 0 60917 69300.00000 0 -16748151.810 -6877059.173 18029377.161 10 0 60917 70200.00000 0 -14422597.050 -7062974.338 19872281.396 10 0 60917 71100.00000 0 -11918310.375 -7460029.158 21331125.493 10 0 60917 72000.00000 0 -9301561.093 -8081363.285 22377649.449 10 0 60917 72900.00000 0 -6641229.233 -8927839.115 22991512.347 10 0 60917 73800.00000 0 -4006158.990 -9987853.149 23160687.285 10 0 60917 74700.00000 0 -1462521.396 -11237680.609 22881702.067 10 0 60917 75600.00000 0 928706.633 -12642340.958 22159720.619 10 0 60917 76500.00000 0 3114044.085 -14156950.641 21008462.540 10 0 60917 77400.00000 0 5049494.143 -15728509.270 19449960.771 10 0 60917 78300.00000 0 6702136.958 -17298047.286 17514160.129 10 0 60917 79200.00000 0 8051260.591 -18803047.686 15238362.241 10 0 60917 80100.00000 0 9088982.353 -20180042.208 12666525.341 10 0 60917 81000.00000 0 9820333.653 -21367274.225 9848430.451 10 0 60917 81900.00000 0 10262803.622 -22307316.712 6838728.316 10 0 60917 82800.00000 0 10445359.610 -22949534.533 3695884.471 10 0 60917 83700.00000 0 10406984.948 -23252285.861 481042.362 10 0 60917 84600.00000 0 10194795.290 -23184767.795 -2743173.253 10 0 60917 85500.00000 0 9861813.375 -22728425.768 -5913888.423 10 0 60918 0.00000 0 9464497.259 -21877864.689 -8969222.063 10 0 60918 900.00000 0 9060128.003 -20641220.349 -11849513.484 10 0 60918 1800.00000 0 8704170.031 -19039974.537 -14498505.349 10 0 60918 2700.00000 0 8447717.607 -17108218.721 -16864462.347 10 0 60918 3600.00000 0 8335138.548 -14891397.511 -18901197.742 10 0 60918 4500.00000 0 8402016.965 -12444584.371 -20568987.820 10 0 60918 5400.00000 0 8673484.008 -9830362.541 -21835355.001 10 0 60918 6300.00000 0 9163008.512 -7116401.024 -22675703.762 10 0 60918 7200.00000 0 9871699.383 -4372828.303 -23073796.838 10 0 60918 8100.00000 0 10788149.235 -1669514.755 -23022062.894 10 0 60918 9000.00000 0 11888825.387 926621.918 -22521730.453 10 0 60918 9900.00000 0 13138990.832 3354175.384 -21582786.633 10 0 60918 10800.00000 0 14494115.094 5559567.097 -20223762.866 10 0 60918 11700.00000 0 15901714.296 7499024.813 -18471353.192 10 0 60918 12600.00000 0 17303541.637 9140142.367 -16359874.078 10 0 60918 13500.00000 0 18638035.079 10462958.022 -13930577.657 10 0 60918 14400.00000 0 19842918.538 11460509.169 -11230833.041 10 0 60918 15300.00000 0 20857846.871 12138843.410 -8313192.729 10 0 60918 16200.00000 0 21626983.583 12516488.815 -5234363.163 10 0 60918 17100.00000 0 22101403.523 12623408.731 -2054099.989 10 0 60918 18000.00000 0 22241220.556 12499487.727 1165950.160 10 0 60918 18900.00000 0 22017352.104 12192614.539 4363438.924 10 0 60918 19800.00000 0 21412847.887 11756444.070 7476513.863 10 0 60918 20700.00000 0 20423728.422 11247933.396 10445001.958 10 0 60918 21600.00000 0 19059299.279 10724755.444 13211557.158 10 0 60918 22500.00000 0 17341928.603 10242698.533 15722751.111 10 0 60918 23400.00000 0 15306297.367 9853160.063 17930087.543 10 0 60918 24300.00000 0 12998153.171 9600838.379 19790922.380 10 0 60918 25200.00000 0 10472618.357 9521718.357 21269273.496 10 0 60918 26100.00000 0 7792121.166 9641434.192 22336505.955 10 0 60918 27000.00000 0 5024033.655 9974077.360 22971880.699 10 0 60918 27900.00000 0 2238111.898 10521499.692 23162956.881 10 0 60918 28800.00000 0 -496157.950 11273141.419 22905840.263 10 0 60918 29700.00000 0 -3112200.182 12206392.762 22205272.527 10 0 60918 30600.00000 0 -5548869.365 13287475.948 21074558.771 10 0 60918 31500.00000 0 -7752746.467 14472813.101 19535333.100 10 0 60918 32400.00000 0 -9680116.973 15710825.338 17617164.864 10 0 60918 33300.00000 0 -11298549.003 16944090.106 15357010.962 10 0 60918 34200.00000 0 -12588005.351 18111768.346 12798522.541 10 0 60918 35100.00000 0 -13541442.190 19152200.986 9991217.424 10 0 60918 36000.00000 0 -14164868.235 20005566.180 6989532.510 10 0 60918 36900.00000 0 -14476860.640 20616485.150 3851773.363 10 0 60918 37800.00000 0 -14507556.901 20936465.617 638980.800 10 0 60918 38700.00000 0 -14297164.510 20926077.804 -2586263.393 10 0 60918 39600.00000 0 -13894051.097 20556768.671 -5761067.509 10 0 60918 40500.00000 0 -13352496.229 19812234.965 -8823472.423 10 0 60918 41400.00000 0 -12730201.107 18689294.364 -11713679.501 10 0 60918 42300.00000 0 -12085663.240 17198215.391 -14375237.908 10 0 60918 43200.00000 0 -11475529.343 15362490.248 -16756166.064 10 0 60918 44100.00000 0 -10952040.765 13218058.724 -18809983.466 10 0 60918 45000.00000 0 -10560681.789 10812015.238 -20496631.103 10 0 60918 45900.00000 0 -10338132.142 8200853.335 -21783261.387 10 0 60918 46800.00000 0 -10310611.693 5448321.843 -22644881.556 10 0 60918 47700.00000 0 -10492688.065 2622983.399 -23064837.877 10 0 60918 48600.00000 0 -10886597.605 -204421.489 -23035131.634 10 0 60918 49500.00000 0 -11482107.870 -2963693.850 -22556561.530 10 0 60918 50400.00000 0 -12256926.367 -5587865.014 -21638690.886 10 0 60918 51300.00000 0 -13177636.880 -8015742.557 -20299641.631 10 0 60918 52200.00000 0 -14201122.306 -10194207.853 -18565720.545 10 0 60918 53100.00000 0 -15276412.355 -12080170.678 -16470886.538 10 0 60918 54000.00000 0 -16346876.809 -13642101.268 -14056070.727 10 0 60918 54900.00000 0 -17352670.742 -14861078.384 -11368363.846 10 0 60918 55800.00000 0 -18233327.935 -15731312.504 -8460087.879 10 0 60918 56700.00000 0 -18930392.965 -16260125.409 -5387770.892 10 0 60918 57600.00000 0 -19389981.328 -16467390.164 -2211045.517 10 0 60918 58500.00000 0 -19565160.456 -16384457.869 1008507.103 10 0 60918 59400.00000 0 -19418052.432 -16052618.719 4208545.549 10 0 60918 60300.00000 0 -18921571.178 -15521163.817 7327165.847 10 0 60918 61200.00000 0 -18060722.372 -14845130.382 10304086.149 10 0 60918 62100.00000 0 -16833412.625 -14082825.443 13081796.491 10 0 60918 63000.00000 0 -15250734.759 -13293231.822 15606652.750 10 0 60918 63900.00000 0 -13336717.510 -12533404.434 17829895.179 10 0 60918 64800.00000 0 -11127549.781 -11855964.933 19708573.507 10 0 60918 65700.00000 0 -8670310.776 -11306798.324 21206362.462 10 0 60918 66600.00000 0 -6021257.290 -10923046.676 22294253.401 10 0 60918 67500.00000 0 -3243737.164 -10731482.865 22951109.978 10 0 60918 68400.00000 0 -405812.941 -10747331.801 23164077.876 10 0 60918 69300.00000 0 2422308.402 -10973588.473 22928840.918 10 0 60918 70200.00000 0 5170935.845 -11400862.039 22249718.305 10 0 60918 71100.00000 0 7773537.001 -12007753.828 21139600.107 10 0 60918 72000.00000 0 10169255.401 -12761755.322 19619720.757 10 0 60918 72900.00000 0 12305199.267 -13620630.689 17719273.018 10 0 60918 73800.00000 0 14138407.278 -14534228.214 15474867.644 10 0 60918 74700.00000 0 15637409.370 -15446646.643 12929846.952 10 0 60918 75600.00000 0 16783316.792 -16298667.018 10133463.476 10 0 60918 76500.00000 0 17570394.716 -17030348.596 7139937.834 10 0 60918 77400.00000 0 18006092.022 -17583679.506 4007412.866 10 0 60918 78300.00000 0 18110525.684 -17905169.585 796823.749 10 0 60918 79200.00000 0 17915440.376 -17948274.261 -2429293.892 10 0 60918 80100.00000 0 17462686.540 -17675544.763 -5608033.850 10 0 60918 81000.00000 0 16802281.168 -17060411.073 -8677361.918 10 0 60918 81900.00000 0 15990133.893 -16088519.330 -11577345.181 10 0 60918 82800.00000 0 15085535.842 -14758564.402 -14251341.943 10 0 60918 83700.00000 0 14148519.219 -13082580.047 -16647127.023 10 0 60918 84600.00000 0 13237201.364 -11085672.572 -18717928.521 10 0 60918 85500.00000 0 12405227.732 -8805207.991 -20423354.153 99